GW6788 Weather Reports


Display with metric or nautical units.
time (UTC)temp
F
wind
direction
speed
MPH
gust
MPH
rain 1hr
in
rain 24hr
in
rain mn
in
humidity
%
barometer
mb
20260508135508 61 54 4.0 5.0 0.00 0.05 0.00 47 1019.1
20260508135008 60 340 1.0 4.0 0.00 0.05 0.00 49 1019.0
20260508134530 60 235 1.0 4.0 0.00 0.05 0.00 46 1019.1
20260508134009 60 82 1.0 3.0 0.00 0.05 0.00 52 1019.1
20260508133506 60 120 1.0 3.0 0.00 0.05 0.00 49 1019.1
20260508133009 59 159 1.0 4.0 0.00 0.06 0.00 53 1019.1
20260508132510 59 30 0.0 4.0 0.00 0.06 0.00 52 1019.1
20260508132004 59 27 2.0 4.0 0.00 0.06 0.00 55 1019.0
20260508131512 58 104 2.0 3.0 0.00 0.06 0.00 56 1018.9
20260508131003 58 152 1.0 2.0 0.00 0.06 0.00 59 1018.9
20260508130503 57 19 0.0 3.0 0.00 0.06 0.00 63 1018.9
20260508130018 57 54 1.0 3.0 0.00 0.07 0.00 67 1018.8
20260508125509 56 29 1.0 4.0 0.00 0.07 0.00 71 1018.8
20260508125009 55 325 1.0 4.0 0.00 0.07 0.00 78 1018.9
20260508124522 54 304 1.0 3.0 0.00 0.07 0.00 79 1018.9
20260508124010 53 314 1.0 3.0 0.00 0.08 0.00 81 1018.8
20260508123508 53 277 1.0 2.0 0.00 0.08 0.00 82 1018.7
20260508123024 52 235 1.0 2.0 0.00 0.08 0.00 85 1018.7
20260508122510 51 262 1.0 2.0 0.00 0.08 0.00 86 1018.6
20260508122011 50 278 1.0 2.0 0.00 0.09 0.00 88 1018.6
20260508121513 49 304 1.0 2.0 0.00 0.11 0.00 89 1018.5
20260508121004 49 17 0.0 2.0 0.00 0.12 0.00 89 1018.5
20260508120505 48 332 0.0 2.0 0.00 0.13 0.00 90 1018.5
20260508120015 48 337 0.0 2.0 0.00 0.14 0.00 90 1018.4
20260508115506 48 341 0.0 2.0 0.00 0.16 0.00 90 1018.3
20260508115007 47 344 0.0 2.0 0.00 0.17 0.00 90 1018.4
20260508114523 47 337 0.0 2.0 0.00 0.18 0.00 91 1018.3
20260508114008 47 31 0.0 2.0 0.00 0.19 0.00 91 1018.3
20260508113508 46 32 0.0 2.0 0.00 0.19 0.00 91 1018.2
20260508113024 46 32 0.0 2.0 0.00 0.19 0.00 91 1018.1
20260508112510 46 34 0.0 1.0 0.00 0.19 0.00 91 1017.9
20260508112008 46 34 0.0 1.0 0.00 0.19 0.00 92 1017.7
20260508111526 46 41 0.0 2.0 0.00 0.19 0.00 91 1017.7
20260508111008 45 42 1.0 2.0 0.00 0.19 0.00 91 1017.7
20260508110504 45 35 1.0 2.0 0.00 0.19 0.00 91 1017.6
20260508110019 45 19 0.0 2.0 0.00 0.19 0.00 90 1017.6
20260508105506 45 19 0.0 2.0 0.00 0.19 0.00 91 1017.5
20260508105005 45 16 0.0 2.0 0.00 0.19 0.00 90 1017.4
20260508104517 45 15 0.0 2.0 0.00 0.19 0.00 90 1017.3
20260508104007 45 16 0.0 2.0 0.00 0.19 0.00 91 1017.2
20260508103507 45 15 0.0 2.0 0.00 0.19 0.00 90 1017.0
20260508103035 45 10 0.0 2.0 0.00 0.19 0.00 90 1016.8
20260508102510 45 10 0.0 2.0 0.00 0.19 0.00 89 1016.7
20260508102008 45 10 0.0 2.0 0.00 0.19 0.00 89 1016.6
20260508101526 45 9 0.0 2.0 0.00 0.19 0.00 89 1016.6
20260508101010 45 10 0.0 0.0 0.00 0.19 0.00 89 1016.5
20260508100507 45 10 0.0 2.0 0.00 0.19 0.00 89 1016.4
20260508100028 46 10 0.0 2.0 0.00 0.19 0.00 89 1016.4
20260508095508 46 11 0.0 2.0 0.00 0.19 0.00 89 1016.4
20260508095005 46 11 0.0 0.0 0.00 0.19 0.00 89 1016.4
20260508094518 46 11 0.0 2.0 0.00 0.19 0.00 89 1016.4
20260508094006 46 11 0.0 2.0 0.00 0.19 0.00 89 1016.4
20260508093508 46 20 0.0 2.0 0.00 0.19 0.00 90 1016.2
20260508093024 46 21 0.0 2.0 0.00 0.19 0.00 90 1016.3
20260508092508 46 21 0.0 2.0 0.00 0.20 0.00 90 1016.2
20260508092010 46 20 0.0 2.0 0.00 0.20 0.00 90 1016.2
20260508091527 46 19 0.0 1.0 0.00 0.20 0.00 89 1016.1
20260508091009 46 20 0.0 2.0 0.00 0.20 0.00 89 1016.2
20260508090511 47 20 0.0 2.0 0.00 0.20 0.00 89 1016.1
20260508090028 47 20 0.0 2.0 0.00 0.20 0.00 89 1016.1
20260508085507 47 28 0.0 2.0 0.00 0.20 0.00 90 1015.9
20260508085008 47 29 0.0 2.0 0.00 0.20 0.00 90 1015.9
20260508084526 47 29 0.0 2.0 0.00 0.21 0.00 90 1015.9
20260508084012 47 29 0.0 1.0 0.00 0.21 0.00 90 1016.1
20260508083507 47 29 1.0 2.0 0.00 0.21 0.00 90 1016.0
20260508083020 47 16 0.0 2.0 0.00 0.21 0.00 90 1015.9
20260508082504 47 356 0.0 2.0 0.00 0.21 0.00 90 1015.9
20260508082013 47 356 0.0 2.0 0.00 0.21 0.00 90 1016.0
20260508081553 47 356 0.0 2.0 0.00 0.21 0.00 90 1016.0
20260508081005 47 348 0.0 2.0 0.00 0.21 0.00 90 1015.9
20260508080503 47 327 0.0 2.0 0.00 0.21 0.00 90 1015.9
20260508080008 47 322 0.0 2.0 0.00 0.21 0.00 90 1015.9
20260508075504 47 315 0.0 2.0 0.00 0.21 0.00 90 1015.8
20260508075005 47 322 0.0 2.0 0.00 0.21 0.00 89 1015.7
20260508074511 48 311 0.0 2.0 0.00 0.21 0.00 89 1015.6
20260508074005 48 311 0.0 2.0 0.00 0.21 0.00 89 1015.7
20260508073504 48 313 0.0 2.0 0.00 0.21 0.00 90 1015.5
20260508073018 48 313 0.0 2.0 0.00 0.21 0.00 90 1015.6
20260508072503 48 304 0.0 2.0 0.00 0.21 0.00 89 1015.6
20260508072007 48 304 0.0 2.0 0.00 0.21 0.00 89 1015.6
20260508071537 48 311 0.0 2.0 0.00 0.21 0.00 89 1015.7
20260508071011 48 315 0.0 2.0 0.00 0.21 0.00 89 1015.7
20260508070507 49 9 0.0 2.0 0.00 0.21 0.00 89 1015.5
20260508070006 49 9 0.0 2.0 0.00 0.21 0.00 89 1015.5
20260508065502 49 9 0.0 2.0 0.00 0.21 0.00 89 1015.4
20260508065005 49 4 0.0 2.0 0.00 0.21 0.00 89 1015.4
20260508064511 49 340 0.0 2.0 0.00 0.21 0.00 89 1015.4
20260508064006 49 330 0.0 2.0 0.00 0.21 0.00 88 1015.3
20260508063502 49 330 0.0 2.0 0.00 0.21 0.00 88 1015.4
20260508063028 49 312 0.0 2.0 0.00 0.21 0.00 88 1015.3
20260508062506 49 312 0.0 2.0 0.00 0.21 0.00 88 1015.4
20260508062007 49 312 0.0 2.0 0.00 0.21 0.00 89 1015.3
20260508061521 49 312 0.0 2.0 0.00 0.21 0.00 89 1015.3
20260508061007 49 309 0.0 2.0 0.00 0.21 0.00 88 1015.4
20260508060507 50 309 0.0 2.0 0.00 0.22 0.00 88 1015.4
20260508060029 50 314 0.0 2.0 0.00 0.22 0.00 88 1015.5
20260508055503 50 315 0.0 2.0 0.00 0.22 0.00 88 1015.5
20260508055003 50 314 0.0 2.0 0.00 0.22 0.00 89 1015.4
20260508054509 50 314 0.0 2.0 0.00 0.22 0.00 88 1015.4
20260508054002 50 314 0.0 2.0 0.00 0.22 0.00 88 1015.3
20260508053503 50 336 0.0 2.0 0.00 0.22 0.00 87 1015.3
20260508053016 50 29 0.0 2.0 0.00 0.22 0.00 88 1015.4
20260508052510 50 30 0.0 1.0 0.00 0.22 0.00 88 1015.4
20260508052003 50 30 0.0 1.0 0.00 0.23 0.00 87 1015.2
20260508051516 50 30 1.0 1.0 0.00 0.23 0.00 87 1015.2
20260508051004 51 360 0.0 2.0 0.00 0.23 0.00 87 1015.3
20260508050506 51 300 0.0 2.0 0.00 0.23 0.00 87 1015.2
20260508050023 51 300 0.0 2.0 0.00 0.23 0.00 86 1015.2
20260508045508 51 304 0.0 2.0 0.00 0.24 0.00 86 1015.1
20260508045009 52 305 1.0 2.0 0.00 0.26 0.00 86 1015.0
20260508044529 52 166 0.0 2.0 0.00 0.26 0.00 85 1015.1
20260508044004 52 31 0.0 2.0 0.00 0.26 0.00 86 1015.0
20260508043506 51 31 0.0 2.0 0.00 0.26 0.00 86 1015.0
20260508043011 51 31 0.0 2.0 0.00 0.26 0.00 86 1015.0
20260508042505 52 31 1.0 2.0 0.00 0.26 0.00 86 1015.0
20260508042003 52 19 0.0 2.0 0.00 0.26 0.00 86 1015.0
20260508041517 52 19 1.0 2.0 0.00 0.26 0.00 85 1015.0
20260508041008 52 270 0.0 2.0 0.00 0.26 0.00 85 1015.0
20260508040504 52 270 0.0 2.0 0.00 0.26 0.00 85 1015.0
20260508040022 52 273 0.0 2.0 0.00 0.26 0.00 84 1015.0
20260508035507 52 17 0.0 2.0 0.00 0.26 0.26 84 1014.9
20260508035008 52 17 0.0 2.0 0.00 0.26 0.26 84 1015.0
20260508034525 53 17 0.0 2.0 0.00 0.26 0.26 83 1015.0
20260508034008 53 16 0.0 2.0 0.00 0.26 0.26 83 1014.9
20260508033510 53 16 0.0 2.0 0.00 0.26 0.26 83 1014.6
20260508033026 53 16 0.0 2.0 0.00 0.26 0.26 83 1014.7
20260508032505 53 16 0.0 2.0 0.00 0.26 0.26 82 1014.6
20260508032004 53 26 1.0 2.0 0.00 0.26 0.26 81 1014.8
20260508031516 53 14 1.0 2.0 0.00 0.26 0.26 82 1014.8
20260508031006 53 295 0.0 2.0 0.00 0.26 0.26 81 1014.7
20260508030507 54 285 0.0 2.0 0.00 0.26 0.26 81 1014.7
20260508030018 54 288 1.0 2.0 0.00 0.26 0.26 80 1014.7
20260508025507 55 275 2.0 2.0 0.00 0.27 0.26 79 1014.5
20260508025006 55 280 0.0 2.0 0.00 0.28 0.26 77 1014.5
20260508024540 55 29 0.0 1.0 0.00 0.30 0.26 76 1014.3
20260508024008 55 29 0.0 2.0 0.00 0.30 0.26 76 1014.3
20260508023509 55 29 0.0 2.0 0.00 0.31 0.26 76 1014.3
20260508023027 56 29 0.0 2.0 0.00 0.31 0.26 76 1014.2
20260508022507 56 29 0.0 2.0 0.00 0.31 0.26 76 1014.1
20260508022011 56 30 1.0 1.0 0.00 0.32 0.26 74 1014.3
20260508021512 56 29 0.0 2.0 0.00 0.32 0.26 73 1014.2
20260508021002 57 29 1.0 2.0 0.00 0.32 0.26 73 1014.1
20260508020505 57 317 0.0 2.0 0.00 0.32 0.26 71 1014.1
20260508020016 58 330 0.0 2.0 0.00 0.33 0.26 69 1014.0
20260508015504 58 330 0.0 2.0 0.00 0.33 0.26 68 1013.9
20260508015008 58 29 0.0 2.0 0.00 0.34 0.26 65 1013.9
20260508014524 59 29 0.0 2.0 0.00 0.34 0.26 65 1013.8
20260508014008 59 29 0.0 2.0 0.00 0.35 0.26 66 1013.6
20260508013507 59 21 0.0 2.0 0.00 0.37 0.26 64 1013.5
20260508013025 59 23 0.0 2.0 0.00 0.38 0.26 61 1013.5
20260508012507 60 22 0.0 3.0 0.00 0.39 0.26 61 1013.4
20260508012007 60 22 1.0 3.0 0.00 0.39 0.26 61 1013.3
20260508011529 60 5 1.0 4.0 0.00 0.41 0.26 60 1013.2
20260508011010 60 31 1.0 4.0 0.00 0.41 0.26 60 1013.1
20260508010510 60 29 2.0 4.0 0.00 0.41 0.26 59 1013.0
20260508010013 61 52 2.0 6.0 0.00 0.41 0.26 59 1013.0
20260508005506 61 52 3.0 8.0 0.00 0.41 0.26 58 1013.0
20260508005010 61 31 3.0 8.0 0.00 0.42 0.26 58 1012.9
20260508004518 61 8 4.0 11.0 0.00 0.42 0.26 57 1012.6
20260508004010 62 349 4.0 12.0 0.00 0.42 0.26 57 1012.5
20260508003513 62 5 5.0 12.0 0.00 0.44 0.26 58 1012.5
20260508003023 62 350 6.0 12.0 0.00 0.46 0.26 57 1012.3
20260508002511 62 10 3.0 10.0 0.00 0.48 0.26 59 1012.3
20260508002011 62 38 4.0 13.0 0.00 0.49 0.26 59 1012.2
20260508001526 63 50 6.0 13.0 0.00 0.50 0.26 60 1012.2
20260508001007 63 25 5.0 13.0 0.00 0.51 0.26 61 1012.0
20260508000508 63 20 7.0 13.0 0.00 0.52 0.26 63 1012.0
20260508000027 63 31 7.0 13.0 0.00 0.52 0.26 72 1012.0
20260507235511 63 26 2.0 4.0 0.00 0.52 0.26 82 1012.0
20260507235003 63 20 1.0 6.0 0.00 0.52 0.26 81 1011.9
20260507234518 63 43 4.0 8.0 0.00 0.52 0.26 81 1011.8
20260507234004 63 31 3.0 8.0 0.00 0.52 0.26 81 1011.8
20260507233504 63 26 5.0 9.0 0.00 0.52 0.26 80 1011.5
20260507233035 63 31 5.0 9.0 0.00 0.52 0.26 80 1011.6
20260507232507 63 26 4.0 7.0 0.00 0.52 0.26 80 1011.6
20260507232009 64 62 4.0 7.0 0.00 0.52 0.26 79 1011.4
20260507231533 64 100 1.0 7.0 0.00 0.54 0.26 79 1011.4
20260507231008 64 72 4.0 9.0 0.00 0.55 0.26 78 1011.3
20260507230507 64 73 4.0 11.0 0.00 0.55 0.26 78 1011.2
20260507230027 64 30 5.0 11.0 0.00 0.55 0.26 78 1011.0
20260507225507 64 359 4.0 8.0 0.00 0.55 0.26 78 1011.0
20260507225009 64 38 5.0 8.0 0.00 0.55 0.26 78 1011.0
20260507224531 64 346 3.0 7.0 0.00 0.55 0.26 78 1010.8
20260507224011 64 76 4.0 7.0 0.00 0.55 0.26 78 1010.8
20260507223507 64 180 1.0 8.0 0.00 0.55 0.26 78 1010.6
20260507223016 64 48 4.0 11.0 0.00 0.55 0.26 77 1010.3
20260507222510 64 58 6.0 11.0 0.00 0.55 0.26 77 1010.3
20260507222008 64 128 5.0 11.0 0.00 0.55 0.26 77 1010.3
20260507221510 65 31 4.0 8.0 0.00 0.55 0.26 76 1010.3
20260507221003 65 356 3.0 10.0 0.00 0.55 0.26 76 1010.3
20260507220503 65 45 4.0 14.0 0.00 0.55 0.26 76 1010.2
20260507220008 65 71 5.0 14.0 0.00 0.55 0.26 77 1010.2
20260507215507 65 16 7.0 16.0 0.00 0.55 0.26 75 1010.0
20260507215004 65 81 8.0 16.0 0.00 0.55 0.26 75 1010.0
20260507214510 65 31 4.0 11.0 0.00 0.55 0.26 77 1009.9
20260507214003 65 29 6.0 13.0 0.00 0.55 0.26 76 1009.9
20260507213507 65 348 6.0 14.0 0.00 0.55 0.26 78 1009.7
20260507213016 65 71 8.0 15.0 0.00 0.55 0.26 79 1009.6
20260507212505 65 41 8.0 15.0 0.00 0.55 0.26 79 1009.4
20260507212009 65 29 8.0 14.0 0.00 0.55 0.26 79 1009.3
20260507211525 66 66 8.0 13.0 0.00 0.55 0.26 79 1009.3
20260507211005 65 53 7.0 14.0 0.00 0.55 0.26 80 1009.3
20260507210504 64 53 6.0 20.0 0.00 0.55 0.26 81 1009.3
20260507210006 64 41 9.0 20.0 0.00 0.55 0.26 81 1009.0
20260507205502 65 80 5.0 16.0 0.00 0.55 0.26 81 1008.9
20260507205003 66 326 8.0 14.0 0.00 0.55 0.26 80 1009.3
20260507204510 66 360 5.0 11.0 0.00 0.55 0.26 80 1008.8
20260507204004 67 9 5.0 11.0 0.00 0.55 0.26 79 1008.7
20260507203507 68 41 3.0 10.0 0.00 0.55 0.26 78 1008.8
20260507203014 70 89 6.0 13.0 0.00 0.55 0.26 75 1008.7
20260507202508 72 60 7.0 13.0 0.00 0.55 0.26 73 1008.8
20260507202006 73 148 2.0 7.0 0.00 0.55 0.26 70 1008.6
20260507201522 73 276 3.0 7.0 0.00 0.55 0.26 71 1008.3
20260507201010 72 214 2.0 7.0 0.01 0.55 0.26 73 1008.3
20260507200508 72 195 3.0 9.0 0.02 0.55 0.26 79 1008.5
20260507200006 72 193 5.0 10.0 0.03 0.55 0.26 80 1008.4
20260507195505 71 231 4.0 10.0 0.04 0.55 0.26 80 1008.4
20260507195003 71 242 3.0 11.0 0.05 0.55 0.26 82 1008.3
20260507194508 71 206 5.0 11.0 0.05 0.55 0.26 82 1008.4
20260507194002 71 253 3.0 9.0 0.05 0.55 0.26 84 1008.5
20260507193505 71 243 3.0 9.0 0.05 0.55 0.26 85 1008.6
20260507193010 70 249 3.0 6.0 0.05 0.55 0.26 85 1008.4
20260507192506 70 251 3.0 6.0 0.05 0.55 0.26 85 1008.6
20260507192007 70 260 3.0 4.0 0.05 0.55 0.26 83 1008.8
20260507191516 70 181 2.0 8.0 0.05 0.55 0.26 80 1008.7
20260507191005 71 275 3.0 8.0 0.04 0.54 0.25 78 1008.8
20260507190507 72 225 2.0 6.0 0.03 0.52 0.24 76 1008.7
20260507190024 73 228 4.0 8.0 0.02 0.52 0.23 74 1008.8
20260507185507 74 234 5.0 8.0 0.01 0.51 0.22 73 1008.9
20260507185004 74 214 4.0 8.0 0.00 0.50 0.21 68 1008.6
20260507184508 74 287 4.0 8.0 0.00 0.50 0.21 68 1008.8
20260507184005 74 275 4.0 10.0 0.00 0.50 0.21 69 1008.8
20260507183506 74 269 6.0 10.0 0.00 0.50 0.21 68 1008.8
20260507183013 74 271 4.0 10.0 0.00 0.50 0.21 68 1008.9
20260507182505 73 250 4.0 10.0 0.00 0.50 0.21 68 1009.0
20260507182004 73 279 2.0 10.0 0.00 0.50 0.21 71 1009.1
20260507181521 73 280 3.0 7.0 0.00 0.50 0.21 70 1008.9
20260507181009 73 200 4.0 7.0 0.00 0.50 0.21 71 1009.1
20260507180506 73 174 2.0 10.0 0.00 0.50 0.21 71 1009.1
20260507180024 73 171 3.0 10.0 0.00 0.50 0.21 72 1009.1
20260507175508 73 266 4.0 9.0 0.00 0.50 0.21 71 1009.0
20260507175008 73 151 6.0 9.0 0.00 0.50 0.21 72 1009.1
20260507174524 73 284 3.0 11.0 0.00 0.50 0.21 72 1009.1
20260507174009 73 297 6.0 11.0 0.00 0.50 0.21 71 1009.2
20260507173514 73 199 5.0 11.0 0.00 0.50 0.21 72 1009.3
20260507173020 72 205 4.0 7.0 0.00 0.50 0.21 75 1009.4
20260507172505 72 274 5.0 8.0 0.00 0.50 0.21 76 1009.4
20260507172003 71 187 4.0 8.0 0.00 0.51 0.21 78 1009.6
20260507171511 71 213 4.0 9.0 0.00 0.51 0.21 76 1009.6
20260507171005 71 249 5.0 9.0 0.00 0.51 0.21 77 1009.6
20260507170508 71 289 4.0 8.0 0.00 0.51 0.21 77 1009.7
20260507170020 71 279 4.0 9.0 0.00 0.51 0.21 78 1009.8
20260507165506 71 203 3.0 9.0 0.00 0.51 0.21 78 1009.9
20260507165007 71 158 3.0 8.0 0.00 0.51 0.21 79 1010.0
20260507164526 70 281 3.0 10.0 0.00 0.56 0.21 79 1010.1
20260507164008 70 255 4.0 10.0 0.00 0.58 0.21 80 1010.2
20260507163508 70 261 5.0 8.0 0.00 0.58 0.21 82 1010.2
20260507163025 69 268 3.0 5.0 0.00 0.58 0.21 84 1010.1
20260507162504 68 299 3.0 5.0 0.00 0.60 0.21 84 1010.0
20260507162004 68 276 2.0 6.0 0.00 0.60 0.21 84 1010.0
20260507161512 68 278 5.0 6.0 0.00 0.60 0.21 86 1010.1
20260507161006 68 280 3.0 6.0 0.00 0.60 0.21 86 1010.1
20260507160504 68 270 3.0 6.0 0.00 0.60 0.21 88 1010.2
20260507160028 67 289 3.0 6.0 0.00 0.60 0.21 87 1010.2
20260507155505 67 268 4.0 5.0 0.00 0.60 0.21 88 1010.1
20260507155006 67 283 2.0 4.0 0.00 0.60 0.21 87 1010.0
20260507154522 67 277 3.0 5.0 0.00 0.60 0.21 87 1010.0
20260507154009 67 301 1.0 5.0 0.00 0.60 0.21 86 1009.8
20260507153509 67 231 1.0 3.0 0.00 0.60 0.21 89 1009.8
20260507153022 66 330 0.0 3.0 0.00 0.60 0.21 90 1009.7
20260507152513 66 114 1.0 5.0 0.00 0.60 0.21 91 1009.6
20260507152009 65 225 2.0 5.0 0.00 0.60 0.21 91 1009.7
20260507151508 65 273 2.0 5.0 0.00 0.60 0.21 93 1009.8
20260507151004 65 237 1.0 3.0 0.00 0.60 0.21 93 1009.9
20260507150505 64 180 2.0 4.0 0.00 0.60 0.21 93 1010.0
20260507150022 64 255 1.0 4.0 0.00 0.60 0.21 93 1010.3
20260507145507 64 229 2.0 3.0 0.00 0.60 0.21 93 1010.3
20260507145007 64 223 2.0 3.0 0.00 0.60 0.21 93 1010.3
20260507144525 64 278 1.0 4.0 0.00 0.60 0.21 93 1010.4
20260507144006 64 280 2.0 6.0 0.00 0.60 0.21 94 1010.8
20260507143507 64 285 1.0 6.0 0.00 0.60 0.21 94 1010.8
20260507143030 64 192 2.0 6.0 0.01 0.60 0.21 94 1010.5
20260507142507 64 221 3.0 6.0 0.01 0.60 0.21 93 1010.9
20260507142009 64 210 3.0 6.0 0.01 0.60 0.21 94 1010.9
20260507141525 64 270 3.0 5.0 0.01 0.60 0.21 94 1011.2
20260507141010 64 255 2.0 5.0 0.01 0.60 0.21 94 1011.0
20260507140512 64 250 3.0 4.0 0.01 0.60 0.21 94 1010.9
20260507140010 64 246 2.0 2.0 0.02 0.60 0.21 94 1010.6